Flag for U.S.A. Weather past 2 weeks in San Antonio, Texas, U.S.A.

Now
73 °F

Clear.


Feels Like: 71 °F
Forecast: 74 / 87 °F
Wind: 6 mph from Southeast

Location: San Antonio International Airport

Current Time: Jul 1, 2015 at 2:25:58 AM

Latest Report: Jul 1, 2015 at 1:51 AM


Visibility: 10 mi

Pressure: 30.00 "Hg

Humidity: 88%

Dew point: 69 °F

Location of San AntonioLocation

Historic Weather in San Antonio — Graph

°F

San Antonio temperature yesterday

Maximum temperature yesterday: 89 °F (at 2:51 PM)
Minimum temperature yesterday: 75 °F (at 3:51 PM)
Average temperature yesterday: 80 °F

Past Weeks' High & Low Weather Summary

 TemperatureHumidityPressure
High92 °F (Jun 29, 3:51 PM)94% (Jun 19, 4:59 AM)30.17 "Hg (Jun 19, 4:59 AM)
Low73 °F (Jun 21, 5:51 PM)41% (Jun 29, 7:51 PM)29.77 "Hg (Jun 16, 8:51 PM)
Average81 °F77%29.98 "Hg
* Reported Jun 16 12:51 AM — Jul 1 12:51 AM, San Antonio, Weather by CustomWeather, © 2015

Note: Actual official high and low records may vary slightly from our data, if they occured in-between our weather recording intervals... More about our weather records

Advertising

San Antonio weather history for previous 24 hours

 ConditionsComfort  
Time TempWeatherWind HumidityBarometerVisibility
12:51 AM
Wed, Jul 1
74 °FClear.8 mph85%30.00 "Hg10 mi
10:51 PM
Tue, Jun 30
75 °FPassing clouds.No wind85%30.00 "Hg10 mi
9:51 PM76 °FPassing clouds.No wind82%29.99 "Hg10 mi
8:51 PM76 °FScattered clouds.6 mph82%29.96 "Hg10 mi
7:51 PM78 °FBroken clouds.9 mph76%29.96 "Hg10 mi
6:51 PM79 °FBroken clouds.3 mph74%29.93 "Hg10 mi
5:51 PM77 °FBroken clouds.8 mph82%29.94 "Hg10 mi
4:51 PM75 °FMore clouds than sun.7 mph88%29.98 "Hg10 mi
3:51 PM75 °FLight rain. Cloudy.14 mph90%29.99 "Hg7 mi
2:51 PM89 °FMostly cloudy.20 mph55%29.94 "Hg10 mi
1:51 PM88 °FBroken clouds.3 mph57%29.94 "Hg10 mi
12:51 PM85 °FBroken clouds.10 mph68%29.97 "Hg10 mi
11:51 AM88 °FBroken clouds.7 mph61%30.00 "Hg10 mi
10:51 AM84 °FBroken clouds.6 mph70%30.01 "Hg10 mi
10:01 AM84 °FPartly sunny.13 mph70%30.07 "Hg10 mi
8:51 AM81 °FBroken clouds.7 mph79%30.00 "Hg10 mi
7:51 AM80 °FMore clouds than sun.7 mph81%29.99 "Hg10 mi
6:51 AM79 °FMostly cloudy.5 mph84%29.98 "Hg9 mi
5:51 AM78 °FOvercast.3 mph84%29.97 "Hg10 mi
4:51 AM79 °FOvercast.7 mph82%29.96 "Hg10 mi
3:51 AM79 °FOvercast.10 mph82%29.97 "Hg10 mi
2:51 AM79 °FMostly cloudy.12 mph82%29.97 "Hg10 mi
Weather by CustomWeather, © 2015

See weather overviewHow to use our weather pages